When you browse on this site, cookies collect data to enhance your experience and personalize the content and advertising you see.
Visit our Privacy Policy to learn more. By continuing to use the site, you agree to this use of cookies and data.

Hourly Weather Savyon

Today, 8 July, Wednesday

Time Temperature Precipitation Wind Pressure Humidity
00:00 +25°C° 0 mm 1 mps 749 mmHg 80%
01:00 +25°C° 0 mm 1 mps 749 mmHg 80%
02:00 +23°C° 0 mm 0 mps 749 mmHg 78%
03:00 +22°C° 0 mm 0 mps 749 mmHg 80%
04:00 +22°C° 0 mm 0 mps 749 mmHg 82%
05:00 +22°C° 0 mm 0 mps 749 mmHg 83%
06:00 +26°C° 0 mm 1 mps 749 mmHg 75%
07:00 +28°C° 0 mm 1 mps 750 mmHg 68%
08:00 +29°C° 0 mm 2 mps 750 mmHg 60%
09:00 +31°C° 0 mm 3 mps 750 mmHg 55%
10:00 +33°C° 0 mm 4 mps 750 mmHg 51%
11:00 +34°C° 0 mm 5 mps 750 mmHg 46%
12:00 +34°C° 0 mm 5 mps 750 mmHg 49%
13:00 +33°C° 0 mm 5 mps 750 mmHg 51%
14:00 +33°C° 0 mm 6 mps 749 mmHg 54%
15:00 +32°C° 0 mm 6 mps 749 mmHg 57%
16:00 +32°C° 0 mm 6 mps 749 mmHg 60%
17:00 +30°C° 0 mm 5 mps 749 mmHg 62%
18:00 +29°C° 0 mm 5 mps 750 mmHg 68%
19:00 +28°C° 0 mm 4 mps 750 mmHg 74%
20:00 +27°C° 0 mm 3 mps 750 mmHg 80%
21:00 +26°C° 0 mm 3 mps 750 mmHg 80%
22:00 +26°C° 0 mm 2 mps 750 mmHg 80%
23:00 +25°C° 0 mm 2 mps 750 mmHg 80%

Tomorrow, 9 July, Thursday

Time Temperature Precipitation Wind Pressure Humidity
00:00 +25°C° 0 mm 1 mps 750 mmHg 81%
01:00 +25°C° 0 mm 1 mps 749 mmHg 82%
02:00 +25°C° 0 mm 1 mps 749 mmHg 83%
03:00 +25°C° 0 mm 1 mps 749 mmHg 83%
04:00 +25°C° 0 mm 1 mps 749 mmHg 84%
05:00 +24°C° 0 mm 1 mps 749 mmHg 84%
06:00 +26°C° 0 mm 1 mps 750 mmHg 78%
07:00 +27°C° 0 mm 1 mps 750 mmHg 72%
08:00 +28°C° 0 mm 1 mps 750 mmHg 66%
09:00 +29°C° 0 mm 2 mps 750 mmHg 61%
10:00 +30°C° 0 mm 3 mps 750 mmHg 55%
11:00 +32°C° 0 mm 4 mps 750 mmHg 50%
12:00 +32°C° 0 mm 4 mps 750 mmHg 51%
13:00 +32°C° 0 mm 5 mps 749 mmHg 53%
14:00 +32°C° 0 mm 5 mps 749 mmHg 54%
15:00 +32°C° 0 mm 5 mps 749 mmHg 56%
16:00 +30°C° 0 mm 5 mps 749 mmHg 58%
17:00 +29°C° 0 mm 5 mps 749 mmHg 60%
18:00 +28°C° 0 mm 4 mps 749 mmHg 64%
19:00 +27°C° 0 mm 3 mps 749 mmHg 68%
20:00 +26°C° 0 mm 3 mps 749 mmHg 72%
21:00 +26°C° 0 mm 2 mps 749 mmHg 73%
22:00 +25°C° 0 mm 2 mps 749 mmHg 74%
23:00 +25°C° 0 mm 2 mps 749 mmHg 76%

Day after tomorrow, 10 July, Friday

Time Temperature Precipitation Wind Pressure Humidity
00:00 +25°C° 0 mm 2 mps 748 mmHg 78%
01:00 +24°C° 0 mm 1 mps 748 mmHg 81%
02:00 +24°C° 0 mm 1 mps 748 mmHg 84%
03:00 +24°C° 0 mm 1 mps 748 mmHg 84%
04:00 +24°C° 0 mm 1 mps 749 mmHg 85%
05:00 +22°C° 0 mm 0 mps 749 mmHg 85%
06:00 +23°C° 0 mm 0 mps 749 mmHg 79%
07:00 +27°C° 0 mm 1 mps 749 mmHg 72%
08:00 +28°C° 0 mm 1 mps 749 mmHg 65%
09:00 +30°C° 0 mm 2 mps 749 mmHg 60%
10:00 +31°C° 0 mm 3 mps 749 mmHg 55%
11:00 +33°C° 0 mm 4 mps 749 mmHg 50%
12:00 +33°C° 0 mm 4 mps 749 mmHg 52%
13:00 +33°C° 0 mm 5 mps 748 mmHg 53%
14:00 +33°C° 0 mm 6 mps 748 mmHg 55%
15:00 +32°C° 0 mm 6 mps 748 mmHg 57%
16:00 +32°C° 0 mm 6 mps 748 mmHg 60%
17:00 +30°C° 0 mm 6 mps 748 mmHg 62%
18:00 +29°C° 0 mm 5 mps 748 mmHg 67%
19:00 +28°C° 0 mm 4 mps 749 mmHg 72%
20:00 +27°C° 0 mm 3 mps 749 mmHg 78%
21:00 +26°C° 0 mm 2 mps 749 mmHg 78%
22:00 +26°C° 0 mm 2 mps 749 mmHg 78%
23:00 +26°C° 0 mm 1 mps 749 mmHg 78%

11 July, Saturday

Time Temperature Precipitation Wind Pressure Humidity
00:00 +25°C° 0 mm 1 mps 749 mmHg 80%
01:00 +25°C° 0 mm 1 mps 749 mmHg 82%
02:00 +25°C° 0 mm 1 mps 749 mmHg 83%
03:00 +25°C° 0 mm 1 mps 749 mmHg 84%
04:00 +24°C° 0 mm 1 mps 749 mmHg 84%
05:00 +24°C° 0 mm 1 mps 749 mmHg 84%
06:00 +26°C° 0 mm 1 mps 750 mmHg 78%
07:00 +27°C° 0 mm 1 mps 750 mmHg 71%
08:00 +29°C° 0 mm 1 mps 750 mmHg 65%
09:00 +30°C° 0 mm 2 mps 750 mmHg 60%
10:00 +31°C° 0 mm 3 mps 750 mmHg 55%
11:00 +34°C° 0 mm 4 mps 749 mmHg 50%
12:00 +34°C° 0 mm 4 mps 749 mmHg 50%
13:00 +34°C° 0 mm 5 mps 749 mmHg 50%
14:00 +34°C° 0 mm 5 mps 748 mmHg 50%
15:00 +33°C° 0 mm 5 mps 748 mmHg 55%
16:00 +32°C° 0 mm 5 mps 748 mmHg 59%
17:00 +32°C° 0 mm 5 mps 748 mmHg 64%
18:00 +29°C° 0 mm 4 mps 748 mmHg 71%
19:00 +28°C° 0 mm 3 mps 748 mmHg 79%
20:00 +27°C° 0 mm 3 mps 749 mmHg 86%
21:00 +27°C° 0 mm 2 mps 749 mmHg 87%
22:00 +27°C° 0 mm 2 mps 749 mmHg 87%
23:00 +26°C° 0 mm 1 mps 749 mmHg 88%

12 July, Sunday

Time Temperature Precipitation Wind Pressure Humidity
00:00 +27°C° 0 mm 1 mps 749 mmHg 87%
01:00 +27°C° 0 mm 1 mps 748 mmHg 87%
02:00 +27°C° 0 mm 1 mps 748 mmHg 86%
03:00 +27°C° 0 mm 1 mps 748 mmHg 86%
04:00 +27°C° 0 mm 2 mps 749 mmHg 85%
05:00 +26°C° 0 mm 2 mps 749 mmHg 85%
06:00 +27°C° 0 mm 2 mps 749 mmHg 79%
07:00 +28°C° 0 mm 2 mps 749 mmHg 74%
08:00 +29°C° 0 mm 2 mps 749 mmHg 68%
09:00 +31°C° 0 mm 3 mps 749 mmHg 64%
10:00 +33°C° 0 mm 4 mps 749 mmHg 60%
11:00 +34°C° 0 mm 5 mps 749 mmHg 56%
12:00 +34°C° 0 mm 5 mps 748 mmHg 56%
13:00 +34°C° 0 mm 5 mps 748 mmHg 56%
14:00 +34°C° 0 mm 5 mps 748 mmHg 56%
15:00 +33°C° 0 mm 5 mps 748 mmHg 59%
16:00 +32°C° 0 mm 5 mps 747 mmHg 62%
17:00 +32°C° 0 mm 4 mps 747 mmHg 65%
18:00 +30°C° 0 mm 3 mps 747 mmHg 72%
19:00 +28°C° 0 mm 2 mps 748 mmHg 79%
20:00 +27°C° 0 mm 1 mps 748 mmHg 85%
21:00 +27°C° 0 mm 1 mps 748 mmHg 87%
22:00 +27°C° 0 mm 1 mps 748 mmHg 88%
23:00 +26°C° 0 mm 1 mps 748 mmHg 89%

13 July, Monday

Time Temperature Precipitation Wind Pressure Humidity
00:00 +27°C° 0 mm 2 mps 748 mmHg 88%
01:00 +27°C° 0 mm 2 mps 747 mmHg 87%
02:00 +27°C° 0 mm 2 mps 747 mmHg 86%
03:00 +27°C° 0 mm 2 mps 747 mmHg 84%
04:00 +27°C° 0 mm 1 mps 747 mmHg 82%
05:00 +27°C° 0 mm 1 mps 747 mmHg 80%
06:00 +28°C° 0 mm 1 mps 747 mmHg 75%
07:00 +29°C° 0 mm 2 mps 747 mmHg 70%
08:00 +30°C° 0 mm 2 mps 748 mmHg 65%
09:00 +31°C° 0 mm 3 mps 747 mmHg 61%
10:00 +33°C° 0 mm 4 mps 747 mmHg 58%
11:00 +34°C° 0 mm 5 mps 747 mmHg 54%
12:00 +34°C° 0 mm 5 mps 747 mmHg 55%
13:00 +34°C° 0 mm 6 mps 747 mmHg 56%
14:00 +33°C° 0 mm 6 mps 746 mmHg 58%
15:00 +33°C° 0 mm 5 mps 746 mmHg 60%
16:00 +32°C° 0 mm 5 mps 746 mmHg 62%
17:00 +32°C° 0 mm 5 mps 746 mmHg 64%
18:00 +29°C° 0 mm 4 mps 746 mmHg 71%
19:00 +28°C° 0 mm 2 mps 747 mmHg 78%
20:00 +27°C° 0 mm 1 mps 747 mmHg 85%
21:00 +26°C° 0 mm 1 mps 747 mmHg 85%
22:00 +26°C° 0 mm 1 mps 747 mmHg 86%
23:00 +26°C° 0 mm 1 mps 747 mmHg 86%
Show more